Miscellaneous Local Product
Issued by NWS Hastings, NE

Home | Current Version | Previous Version | Graphics & Text | Print | Product List | Glossary On
Versions: 1 2 3 4 5 6 7 8 9 10 11 12 13 14 15 16 17 18 19 20 21 22 23 24 25 26 27 28 29 30 31 32 33 34 35 36 37 38 39 40 41 42 43 44 45 46 47 48 49 50
000
AXUS43 KGID 011402
MISGRI

GID CWA HOURLY WEATHER ROUNDUP
NATIONAL WEATHER SERVICE HASTINGS NE
900 AM CDT SAT AUG 01 2015

NOTE: "FAIR" INDICATES FEW OR NO CLOUDS BELOW 12,000 FEET WITH NO
SIGNIFICANT WEATHER AND/OR OBSTRUCTIONS TO VISIBILITY.

...SOUTH CENTRAL NEBRASKA...

CITY           SKY/WX    TMP DP  RH WIND       PRES   REMARKS
GRAND ISLAND   CLOUDY    63  60  90 NE14      30.17F
HASTINGS       PTSUNNY   68  59  73 NE9G20    30.15F
KEARNEY        MOSUNNY   70  57  64 NE17      30.15F
ORD            CLOUDY    64  59  83 SE12      30.13R
YORK           LGT RAIN  66  63  88 NW12      30.18R
AURORA         LGT RAIN  65  64  96 N16       30.15F
LEXINGTON      MOSUNNY   70  62  75 E21G29    30.16R
HOLDREGE       SUNNY     68  60  76 NE20G26   30.16S
HEBRON         SUNNY     73  63  72 CALM      30.08F

...NEBRASKA PANHANDLE...

CITY           SKY/WX    TMP DP  RH WIND       PRES   REMARKS
CHADRON        SUNNY     70  55  59 E6        30.05F
ALLIANCE       SUNNY     69  60  73 CALM      30.08F
SCOTTSBLUFF    SUNNY     74  58  57 CALM      30.10R
SIDNEY         SUNNY     75  62  64 SW18      30.13F

...WESTERN AND NORTH CENTRAL NEBRASKA...

CITY           SKY/WX    TMP DP  RH WIND       PRES   REMARKS
VALENTINE      LGT RAIN  66  59  78 SE12      30.09R
AINSWORTH      PTSUNNY   68  56  64 S18G24    30.09F
ONEILL         CLOUDY    69  59  71 S14       30.06F
BROKEN BOW     MOSUNNY   71  57  61 SE18G24   30.15R
IMPERIAL       SUNNY     73  60  63 SW6       30.11F
NORTH PLATTE   SUNNY     71  60  68 SE16      30.13R
MCCOOK         SUNNY     76  62  62 SW10      30.09S

...EASTERN NEBRASKA...

CITY           SKY/WX    TMP DP  RH WIND       PRES   REMARKS
NORFOLK        CLOUDY    71  61  70 SW16      30.05R
SO SIOUX CITY  CLOUDY    69  64  84 CALM      30.03F
TEKAMAH        CLOUDY    67  64  90 S6        30.05S
COLUMBUS       CLOUDY    66  59  77 SW9       30.14F
ALBION         CLOUDY    64  61  89 S14G21    30.10F
OMAHA EPPLEY   CLOUDY    69  67  93 CALM      30.08R
MILLARD        CLOUDY    70  67  89 NW6       30.07R
LINCOLN        CLOUDY    74  62  66 NW18G26   30.10R
NEBRASKA CITY  CLOUDY    70  69  98 CALM      30.07R
BEATRICE       PTSUNNY   71  66  82 NW7       30.09R
FALLS CITY     MOSUNNY   75  71  87 SW5       30.05S

...NORTHERN KANSAS...

CITY           SKY/WX    TMP DP  RH WIND       PRES   REMARKS
GOODLAND       SUNNY     73  63  70 SW10      30.14S
HILL CITY      SUNNY     76  67  73 W5        30.10S
NORTON         SUNNY     73  61  64 CALM      30.10R
PHILLIPSBURG   SUNNY     79  66  65 CALM      30.09R
SMITH CENTER   SUNNY     75  66  73 S3        30.09S
HAYS           SUNNY     73  64  73 CALM      30.10S
RUSSELL        SUNNY     76  70  82 SW5       30.08S
CONCORDIA      SUNNY     77  70  79 CALM      30.08S
SALINA         SUNNY     79  71  76 W3        30.08S
TOPEKA         SUNNY     80  73  79 VRB5      30.07R



USA.gov is the U.S. government's official web portal to all federal, state and local government web resources and services.